Regional Weather Roundup
Issued by NWS

Home | Current Version | Previous Version | Graphics & Text | Print | Product List | Glossary On
Versions: 1 2 3 4 5 6 7 8 9 10 11 12 13 14 15 16 17 18 19 20 21 22 23 24 25 26 27 28 29 30 31 32 33 34 35 36 37 38 39 40 41 42 43 44 45 46 47 48 49 50
000
ASUS45 KBOU 091907
RWRCO

WEATHER ROUNDUP FOR COLORADO
NATIONAL WEATHER SERVICE DENVER/BOULDER CO
1200 PM MST FRI DEC 09 2016

NOTE: "FAIR" INDICATES FEW OR NO CLOUDS BELOW 12000 FEET WITH NO
SIGNIFICANT WEATHER AND/OR OBSTRUCTIONS TO VISIBILITY.

COZ001>005-013-030-031-092000-
...NORTHWEST COLORADO...

CITY           SKY/WX    TMP DP  RH WIND       PRES   REMARKS
CRAIG          CLOUDY    35  24  64 CALM      30.23F
HAYDEN         PTSUNNY   30  21  69 E8        30.23F WCI  23
MEEKER         CLOUDY    38  22  52 SE5       30.25F
MOUNT WERNER   NOT AVBL
STEAMBOAT SPGS CLOUDY    25  20  83 E3        30.23F
WALDEN           N/A     34  23  64 SW21G26   30.16F WCI  22
$$

COZ006>008-011-092000-
...WEST CENTRAL VALLEYS...

CITY           SKY/WX    TMP DP  RH WIND       PRES   REMARKS
GRAND JUNCTION CLOUDY    34  15  46 CALM      30.33F
MONTROSE       CLOUDY    35  17  47 VRB3      30.33F
EAGLE          CLOUDY    36  25  64 CALM      30.29F
RIFLE          CLOUDY    32  18  56 CALM      30.33F
DELTA          CLOUDY    38  17  42 CALM      30.32F
NUCLA          FAIR      41  21  45 CALM      30.34F
$$

COZ017>023-064>068-092000-
...SOUTHWEST COLORADO...

CITY           SKY/WX    TMP DP  RH WIND       PRES   REMARKS
DURANGO        FAIR      39  16  39 S5        30.31F
CORTEZ         FAIR      42  22  44 SW3       30.31F
PAGOSA SPRINGS FAIR      37  18  45 SW3       30.31F
TELLURIDE      PTSUNNY   40  21  46 CALM      30.33F
WOLF CREEK PAS FAIR      27  18  69 S10       30.37S WCI  17
$$

COZ009-010-012-014-032>034-037-058>063-092000-
...CENTRAL COLORADO...

CITY           SKY/WX    TMP DP  RH WIND       PRES   REMARKS
ASPEN          NOT AVBL
BUENA VISTA    FAIR      43  19  38 W15G25    30.19S
COPPER MTN     NOT AVBL
BERTHOUD PASS  SNOW      14   3  62 NW26G32   30.19R VSB 1/2 WCI  -6
COTTONWOOD PAS FAIR      36  19  51 W25G46    30.14F
GUNNISON       CLOUDY    24  18  77 CALM      30.34S
KREMMLING      CLOUDY    41  28  60 W13G18    30.23F
LEADVILLE      FAIR      27  18  69 NW10G16   30.22F WCI  17
MONARCH PASS   CLOUDY    21  19  93 W46G58    30.33F WCI   0
SALIDA         FAIR      46  21  36 W24G32    30.26S
SUNLIGHT       CLOUDY    23  21  93 SW10G22   30.31S WCI  12
WILKERSON PASS FAIR      28  18  64 W20G36    30.19F WCI  15
$$

COZ069>075-092000-
...SAN LUIS VALLEY/SANGRE DE CRISTO MOUNTAINS...

CITY           SKY/WX    TMP DP  RH WIND       PRES   REMARKS
ALAMOSA        FAIR      34  13  41 VRB3      30.27F
LA VETA PASS   FAIR      32  21  64 NE15G37   30.20S WCI  22
SAGUACHE       FAIR      34  14  44 S6        30.27F WCI  29
$$

COZ035-036-038>040-092000-
...NORTHERN COLORADO FRONT RANGE...

CITY           SKY/WX    TMP DP  RH WIND       PRES   REMARKS
DENVER INTL AP FAIR      50  26  39 W5        30.07F
DMNS CITY PARK   N/A     48  24  39 E1G10     30.06F
AURORA         MOSUNNY   50  25  37 CALM      30.08F
FRONT RANGE AP NOT AVBL
ERIE MUNI ARPT FAIR      33  22  63 CALM      30.07F
BOULDER MUN AP FAIR      41  23  48 CALM      30.06F
CENTENNIAL     FAIR      49  23  36 SE6       30.08F
BROOMFIELD     MOSUNNY   50  25  37 SE6       30.08F
FORT COLLINS   FAIR      25  16  68 S3        30.08F
LONGMONT       FAIR      32  17  53 CALM      30.09F
$$

COZ041-046-047-076>085-087-088-092000-
...PIKES PEAK/PALMER DIVIDE AND SOUTHERN FOOTHILLS...

CITY           SKY/WX    TMP DP  RH WIND       PRES   REMARKS
COLO. SPRINGS  FAIR      47  29  49 S7        30.12F
A. F. ACADEMY  PTSUNNY   46  23  40 SE10      30.09F
SCHRIEVER AFB  NOT AVBL
ELLICOTT       FAIR     N/A N/A N/A MISG      30.10F
FALCON         FAIR      50  20  30 W3        30.12F
FORT CARSON    FAIR      47  26  44 N1        30.09F
LIMON          FAIR      36  20  52 CALM      30.10F
MONUMENT HILL  FAIR      46  21  36 SW3       30.12F
TRINIDAD       FAIR      54  18  24 SE8       30.12F
$$

COZ042>045-048>051-090-091-092000-
...NORTHEAST COLORADO...

CITY           SKY/WX    TMP DP  RH WIND       PRES   REMARKS
GREELEY ARPT   FAIR      24  13  62 VRB3      30.12S
AKRON          FAIR      24  12  60 W6        30.11F WCI  17
BURLINGTON     FAIR      36  18  48 S15       30.13F
WRAY           NOT AVBL
STERLING       FAIR      25  14  63 SW3       30.14F
HOLYOKE        FAIR      30  16  55 SW8       30.18S WCI  23
FORT MORGAN    FAIR      28  13  53 CALM      30.13S
$$

COZ086-089-092>099-092000-
...SOUTHEAST COLORADO...

CITY           SKY/WX    TMP DP  RH WIND       PRES   REMARKS
PUEBLO         FAIR      36  14  40 VRB3      30.12F
LA JUNTA       FAIR      30   9  41 CALM      30.16F
LAMAR          FAIR      31  12  45 CALM      30.17F
SPRINGFIELD      N/A     39  20  46 VRB3      30.15F
$$



USA.gov is the U.S. government's official web portal to all federal, state and local government web resources and services.